OBJECT AT, 61776

Orbit data source: Space-Track

You're viewing an uncataloged RSO

Recently launched and/or uncataloged RSOs may have evolving metadata. Metadata may include the following, but is not limited to: Owner, Manufacturer, Bus, Motor, and Mission.

OBJECT AT, 61776 is a satellite in SSO that was launched on Mon, 04 Nov 2024 UTC via a SOYUZ-2-1B launch vehicle from the Vostochny Cosmodrome (VOSTO). Unknown objects in Earth's orbit typically refer to objects detected orbiting the Earth but have not yet been identified or cataloged. These objects could be anything from previously untracked satellites, spent rocket stages, debris from satellite collisions, or even natural meteoroids temporarily captured by Earth's gravity.

Loading next visibility...
Identifier
61776, 2024-199AT
Orbit
SSO
Country
Flag of TBDTBD
Related business
Manufacturer
Sputniks
Mission
Operational Commercial Communications
Bus & Motor
CUBESAT 3U?, Unknown motor
Mass
3 kg wet, 3 kg dry
Launch date (UTC)
2024-11-04 (2 years ago)
Launch vehicle
SOYUZ-2-1B
Launch site
Vostochny Cosmodrome (VOSTO)
Object type
Unknown
Shape & HBR
Box, 0.2 m
Radar Cross Section
0.035 m², Medium (>0.1 m² and < 1m²)

Expand to show TLE details & history
Last TLE update: 9 hours ago

TLE from 9 hours ago
0 OBJECT AT
1 61776U 24199AT  26264.24275820  .00079992  00000-0  57209-3 0  9994
2 61776  97.2675 144.1966 0001089 285.6106  74.5038 15.73503309152665
Epoch: 2026-09-21T05:49Z
TLE epoch observation values (Epoch: 2026-09-21T05:49:34.308Z)
Latitude
-0.00004°
Longitude
56.67826°
Altitude
351.864 km
Speed
7.698 km/s
True Right ascension
09h 36m 47s
True Declination
0° 00' 00"
Sunlit
Object was in daylight at epoch
Visualization orbit readout
Latitude
Unknown
Longitude
Unknown
Altitude
Unknown
Speed
Unknown
Apparent Right ascension
Unknown
Apparent Declination
Unknown
Sunlit
N/A
Visualization observer readout
Local Sidereal Time
08:07:05
Azimuth
Unknown
Elevation
Unknown
Doppler factor
Unknown
Orbital elements
Apogee altitude
346.515 km
Perigee altitude
345.05 km
Semi-major axis
6,723.919 km
Eccentricity
0.00011
Inclination
97.2675°
RAAN
144.1966°
Arg. of periapsis
285.6106°
True anomaly
74.51583°
Mean anomaly
74.5038°
Eccentric anomaly
74.50981°
Mean motion
3.93649 °/min
Orbital period
91.45 mins
BSTAR
0.00057209
Loading maneuver chart data...
Computing Atmospheric mass density...
Loading historical data...
Loading historical data...
Loading historical data...
Loading historical data...
Loading historical data...
Loading historical data...
Loading historical data...

Documentation

Showing up to 5 results
|